| time (UTC) | temp F | wind direction | speed MPH | gust MPH | rain 1hr in | rain 24hr in | rain mn in | humidity % | barometer mb |
| 20260510142528 | 69 | 156 | 8.0 | 17.0 | 0.00 | 0.06 | 0.06 | 77 | 1015.0 |
| 20260510142028 | 69 | 181 | 6.0 | 15.0 | 0.00 | 0.06 | 0.06 | 78 | 1015.0 |
| 20260510141539 | 68 | 113 | 7.0 | 16.0 | 0.00 | 0.06 | 0.06 | 79 | 1015.1 |
| 20260510141028 | 68 | 155 | 5.0 | 16.0 | 0.00 | 0.06 | 0.06 | 80 | 1015.1 |
| 20260510140527 | 68 | 167 | 4.0 | 15.0 | 0.00 | 0.06 | 0.06 | 81 | 1015.1 |
| 20260510140044 | 68 | 175 | 4.0 | 15.0 | 0.00 | 0.06 | 0.06 | 82 | 1015.0 |
| 20260510135531 | 67 | 165 | 4.0 | 12.0 | 0.00 | 0.06 | 0.06 | 82 | 1015.5 |
| 20260510135028 | 67 | 143 | 3.0 | 13.0 | 0.00 | 0.06 | 0.06 | 83 | 1015.6 |
| 20260510134543 | 67 | 121 | 5.0 | 13.0 | 0.00 | 0.06 | 0.06 | 84 | 1015.9 |
| 20260510134027 | 67 | 123 | 2.0 | 8.0 | 0.00 | 0.06 | 0.06 | 85 | 1015.9 |
| 20260510133526 | 66 | 189 | 2.0 | 11.0 | 0.00 | 0.06 | 0.06 | 85 | 1016.2 |
| 20260510133041 | 66 | 89 | 2.0 | 11.0 | 0.00 | 0.06 | 0.06 | 85 | 1016.1 |
| 20260510132528 | 66 | 166 | 1.0 | 7.0 | 0.00 | 0.06 | 0.06 | 86 | 1016.0 |
| 20260510132033 | 66 | 0 | 1.0 | 9.0 | 0.00 | 0.06 | 0.06 | 86 | 1015.9 |
| 20260510131543 | 66 | 105 | 2.0 | 10.0 | 0.00 | 0.06 | 0.06 | 86 | 1015.8 |
| 20260510131027 | 66 | 85 | 3.0 | 10.0 | 0.00 | 0.06 | 0.06 | 86 | 1015.6 |
| 20260510130528 | 66 | 66 | 4.0 | 13.0 | 0.00 | 0.06 | 0.06 | 87 | 1015.6 |
| 20260510130042 | 65 | 63 | 4.0 | 13.0 | 0.01 | 0.06 | 0.06 | 88 | 1015.6 |
| 20260510125527 | 65 | 91 | 2.0 | 7.0 | 0.01 | 0.06 | 0.06 | 88 | 1015.6 |
| 20260510125027 | 66 | 66 | 1.0 | 4.0 | 0.01 | 0.06 | 0.06 | 88 | 1015.4 |
| 20260510124539 | 66 | 104 | 0.0 | 8.0 | 0.01 | 0.06 | 0.06 | 89 | 1015.4 |
| 20260510124032 | 66 | 94 | 1.0 | 8.0 | 0.01 | 0.06 | 0.06 | 88 | 1015.4 |
| 20260510123531 | 65 | 76 | 2.0 | 8.0 | 0.01 | 0.06 | 0.06 | 89 | 1015.4 |
| 20260510123042 | 65 | 114 | 1.0 | 9.0 | 0.01 | 0.06 | 0.06 | 89 | 1015.4 |
| 20260510122528 | 65 | 82 | 3.0 | 12.0 | 0.01 | 0.06 | 0.06 | 89 | 1015.3 |
| 20260510122028 | 65 | 88 | 1.0 | 12.0 | 0.01 | 0.06 | 0.06 | 89 | 1015.3 |
| 20260510121543 | 64 | 61 | 2.0 | 11.0 | 0.01 | 0.06 | 0.06 | 89 | 1015.1 |
| 20260510121029 | 64 | 62 | 1.0 | 11.0 | 0.01 | 0.06 | 0.06 | 89 | 1015.2 |
| 20260510120528 | 64 | 42 | 3.0 | 11.0 | 0.01 | 0.06 | 0.06 | 89 | 1015.0 |
| 20260510120043 | 64 | 90 | 2.0 | 10.0 | 0.00 | 0.05 | 0.05 | 90 | 1015.0 |
| 20260510115528 | 64 | 65 | 4.0 | 9.0 | 0.00 | 0.05 | 0.05 | 89 | 1015.0 |
| 20260510115028 | 64 | 71 | 2.0 | 10.0 | 0.00 | 0.05 | 0.05 | 89 | 1015.0 |
| 20260510114542 | 64 | 94 | 3.0 | 10.0 | 0.00 | 0.05 | 0.05 | 89 | 1015.0 |
| 20260510114027 | 64 | 68 | 2.0 | 10.0 | 0.00 | 0.05 | 0.05 | 89 | 1015.0 |
| 20260510113530 | 64 | 55 | 2.0 | 9.0 | 0.01 | 0.05 | 0.05 | 90 | 1014.9 |
| 20260510113043 | 64 | 59 | 2.0 | 9.0 | 0.01 | 0.05 | 0.05 | 89 | 1014.7 |
| 20260510112527 | 64 | 83 | 3.0 | 9.0 | 0.01 | 0.05 | 0.05 | 89 | 1014.9 |
| 20260510112029 | 64 | 33 | 2.0 | 9.0 | 0.01 | 0.05 | 0.05 | 89 | 1015.0 |
| 20260510111542 | 64 | 63 | 0.0 | 8.0 | 0.01 | 0.05 | 0.05 | 90 | 1014.9 |
| 20260510111028 | 64 | 128 | 1.0 | 9.0 | 0.01 | 0.05 | 0.05 | 90 | 1014.9 |
| 20260510110528 | 64 | 70 | 3.0 | 11.0 | 0.02 | 0.05 | 0.05 | 89 | 1014.8 |
| 20260510110045 | 64 | 106 | 3.0 | 11.0 | 0.02 | 0.05 | 0.05 | 90 | 1014.8 |
| 20260510105529 | 64 | 76 | 4.0 | 11.0 | 0.02 | 0.05 | 0.05 | 89 | 1014.4 |
| 20260510105029 | 64 | 106 | 6.0 | 12.0 | 0.02 | 0.05 | 0.05 | 89 | 1014.5 |
| 20260510104541 | 64 | 71 | 6.0 | 12.0 | 0.02 | 0.05 | 0.05 | 89 | 1014.4 |
| 20260510104028 | 64 | 57 | 6.0 | 12.0 | 0.02 | 0.05 | 0.05 | 89 | 1014.3 |
| 20260510103528 | 64 | 80 | 5.0 | 13.0 | 0.01 | 0.04 | 0.04 | 89 | 1014.2 |
| 20260510103038 | 64 | 61 | 7.0 | 13.0 | 0.02 | 0.04 | 0.04 | 89 | 1014.1 |
| 20260510102527 | 64 | 69 | 6.0 | 13.0 | 0.02 | 0.04 | 0.04 | 89 | 1014.2 |
| 20260510102028 | 64 | 59 | 6.0 | 15.0 | 0.02 | 0.04 | 0.04 | 89 | 1014.1 |
| 20260510101548 | 64 | 76 | 6.0 | 15.0 | 0.03 | 0.04 | 0.04 | 89 | 1014.3 |
| 20260510101029 | 64 | 42 | 6.0 | 17.0 | 0.04 | 0.04 | 0.04 | 89 | 1014.4 |
| 20260510100529 | 63 | 69 | 7.0 | 17.0 | 0.03 | 0.03 | 0.03 | 88 | 1014.6 |
| 20260510100042 | 64 | 49 | 6.0 | 17.0 | 0.03 | 0.03 | 0.03 | 87 | 1014.7 |
| 20260510095530 | 64 | 53 | 7.0 | 20.0 | 0.03 | 0.03 | 0.03 | 87 | 1014.7 |
| 20260510095028 | 64 | 52 | 9.0 | 23.0 | 0.03 | 0.03 | 0.03 | 87 | 1014.6 |
| 20260510094546 | 65 | 61 | 9.0 | 23.0 | 0.03 | 0.03 | 0.03 | 86 | 1014.6 |
| 20260510094028 | 65 | 64 | 11.0 | 21.0 | 0.03 | 0.03 | 0.03 | 86 | 1014.2 |
| 20260510093526 | 65 | 61 | 10.0 | 21.0 | 0.03 | 0.03 | 0.03 | 85 | 1014.0 |
| 20260510093043 | 65 | 38 | 11.0 | 21.0 | 0.02 | 0.02 | 0.02 | 84 | 1013.8 |
| 20260510092527 | 66 | 67 | 10.0 | 21.0 | 0.02 | 0.02 | 0.02 | 82 | 1014.2 |
| 20260510092029 | 67 | 68 | 10.0 | 24.0 | 0.02 | 0.02 | 0.02 | 80 | 1014.9 |
| 20260510091540 | 69 | 46 | 9.0 | 24.0 | 0.01 | 0.01 | 0.01 | 77 | 1015.3 |
| 20260510091030 | 70 | 25 | 10.0 | 21.0 | 0.00 | 0.00 | 0.00 | 74 | 1015.3 |
| 20260510090528 | 70 | 351 | 10.0 | 21.0 | 0.00 | 0.00 | 0.00 | 74 | 1014.7 |
| 20260510090049 | 71 | 335 | 8.0 | 20.0 | 0.00 | 0.00 | 0.00 | 80 | 1014.3 |
| 20260510085528 | 73 | 352 | 8.0 | 20.0 | 0.00 | 0.00 | 0.00 | 85 | 1013.9 |
| 20260510085028 | 73 | 28 | 6.0 | 16.0 | 0.00 | 0.00 | 0.00 | 86 | 1013.6 |
| 20260510084535 | 73 | 346 | 3.0 | 11.0 | 0.00 | 0.00 | 0.00 | 86 | 1013.6 |
| 20260510084028 | 73 | 52 | 3.0 | 11.0 | 0.00 | 0.00 | 0.00 | 86 | 1013.4 |
| 20260510083529 | 73 | 65 | 4.0 | 11.0 | 0.00 | 0.00 | 0.00 | 86 | 1013.3 |
| 20260510083042 | 73 | 59 | 4.0 | 11.0 | 0.00 | 0.00 | 0.00 | 86 | 1013.1 |
| 20260510082528 | 73 | 63 | 5.0 | 11.0 | 0.00 | 0.00 | 0.00 | 86 | 1012.7 |
| 20260510082031 | 74 | 55 | 4.0 | 10.0 | 0.00 | 0.00 | 0.00 | 85 | 1012.9 |
| 20260510081551 | 74 | 46 | 4.0 | 10.0 | 0.00 | 0.00 | 0.00 | 85 | 1013.3 |
| 20260510081027 | 74 | 59 | 2.0 | 9.0 | 0.00 | 0.00 | 0.00 | 85 | 1013.4 |
| 20260510080529 | 74 | 355 | 2.0 | 9.0 | 0.00 | 0.00 | 0.00 | 85 | 1013.2 |
| 20260510080040 | 74 | 57 | 3.0 | 6.0 | 0.00 | 0.00 | 0.00 | 84 | 1012.8 |
| 20260510075529 | 74 | 66 | 2.0 | 7.0 | 0.00 | 0.00 | 0.00 | 84 | 1012.4 |
| 20260510075029 | 74 | 57 | 3.0 | 7.0 | 0.00 | 0.00 | 0.00 | 84 | 1012.3 |
| 20260510074556 | 74 | 58 | 3.0 | 5.0 | 0.00 | 0.00 | 0.00 | 83 | 1012.1 |
| 20260510074028 | 74 | 58 | 3.0 | 9.0 | 0.00 | 0.00 | 0.00 | 83 | 1012.0 |
| 20260510073532 | 74 | 80 | 3.0 | 9.0 | 0.00 | 0.00 | 0.00 | 82 | 1011.8 |
| 20260510073044 | 74 | 60 | 2.0 | 6.0 | 0.00 | 0.00 | 0.00 | 82 | 1011.7 |
| 20260510072526 | 74 | 96 | 1.0 | 7.0 | 0.00 | 0.00 | 0.00 | 82 | 1011.4 |
| 20260510072031 | 75 | 170 | 1.0 | 9.0 | 0.00 | 0.00 | 0.00 | 82 | 1011.2 |
| 20260510071544 | 75 | 112 | 1.0 | 9.0 | 0.00 | 0.00 | 0.00 | 82 | 1011.1 |
| 20260510071028 | 75 | 73 | 2.0 | 9.0 | 0.00 | 0.00 | 0.00 | 81 | 1011.0 |
| 20260510070529 | 75 | 69 | 2.0 | 9.0 | 0.00 | 0.00 | 0.00 | 81 | 1011.1 |
| 20260510070046 | 75 | 96 | 2.0 | 13.0 | 0.00 | 0.00 | 0.00 | 81 | 1011.2 |
| 20260510065528 | 75 | 167 | 4.0 | 13.0 | 0.00 | 0.00 | 0.00 | 81 | 1011.2 |
| 20260510065029 | 75 | 78 | 9.0 | 13.0 | 0.00 | 0.00 | 0.00 | 80 | 1011.2 |
| 20260510064538 | 75 | 59 | 6.0 | 17.0 | 0.00 | 0.00 | 0.00 | 80 | 1012.1 |
| 20260510064028 | 75 | 44 | 4.0 | 17.0 | 0.00 | 0.00 | 0.00 | 79 | 1012.8 |
| 20260510063528 | 75 | 49 | 7.0 | 17.0 | 0.00 | 0.00 | 0.00 | 79 | 1013.1 |
| 20260510063035 | 76 | 360 | 6.0 | 12.0 | 0.00 | 0.00 | 0.00 | 78 | 1013.3 |
| 20260510062527 | 76 | 9 | 5.0 | 11.0 | 0.00 | 0.00 | 0.00 | 79 | 1013.5 |
| 20260510062030 | 75 | 340 | 5.0 | 11.0 | 0.00 | 0.00 | 0.00 | 78 | 1013.4 |
| 20260510061553 | 76 | 30 | 2.0 | 9.0 | 0.00 | 0.00 | 0.00 | 78 | 1013.1 |
| 20260510061032 | 76 | 59 | 3.0 | 9.0 | 0.00 | 0.00 | 0.00 | 78 | 1013.2 |
| 20260510060529 | 75 | 51 | 3.0 | 7.0 | 0.00 | 0.00 | 0.00 | 77 | 1013.3 |
| 20260510060042 | 75 | 38 | 3.0 | 8.0 | 0.00 | 0.00 | 0.00 | 77 | 1012.6 |
| 20260510055528 | 75 | 46 | 3.0 | 8.0 | 0.00 | 0.00 | 0.00 | 77 | 1011.8 |
| 20260510055028 | 75 | 64 | 2.0 | 10.0 | 0.00 | 0.00 | 0.00 | 77 | 1011.1 |
| 20260510054556 | 76 | 67 | 3.0 | 10.0 | 0.00 | 0.00 | 0.00 | 77 | 1010.7 |
| 20260510054030 | 76 | 78 | 2.0 | 8.0 | 0.00 | 0.00 | 0.00 | 76 | 1010.6 |
| 20260510053533 | 76 | 113 | 1.0 | 9.0 | 0.00 | 0.00 | 0.00 | 76 | 1010.6 |
| 20260510053044 | 76 | 86 | 2.0 | 10.0 | 0.00 | 0.00 | 0.00 | 76 | 1010.6 |
| 20260510052528 | 76 | 84 | 2.0 | 10.0 | 0.00 | 0.00 | 0.00 | 75 | 1010.4 |
| 20260510052030 | 76 | 51 | 1.0 | 10.0 | 0.00 | 0.00 | 0.00 | 75 | 1010.3 |
| 20260510051543 | 76 | 63 | 2.0 | 8.0 | 0.00 | 0.00 | 0.00 | 74 | 1010.3 |
| 20260510051027 | 76 | 187 | 2.0 | 12.0 | 0.00 | 0.00 | 0.00 | 73 | 1010.2 |
| 20260510050529 | 76 | 71 | 2.0 | 12.0 | 0.00 | 0.00 | 0.00 | 72 | 1010.3 |
| 20260510050053 | 76 | 55 | 3.0 | 12.0 | 0.00 | 0.00 | 0.00 | 70 | 1010.4 |
| 20260510045529 | 77 | 65 | 2.0 | 10.0 | 0.00 | 0.00 | 0.00 | 68 | 1010.3 |
| 20260510045028 | 77 | 50 | 2.0 | 10.0 | 0.00 | 0.00 | 0.00 | 68 | 1010.3 |
| 20260510044546 | 77 | 103 | 3.0 | 11.0 | 0.00 | 0.00 | 0.00 | 66 | 1010.2 |
| 20260510044028 | 77 | 148 | 2.0 | 11.0 | 0.00 | 0.00 | 0.00 | 65 | 1010.0 |
| 20260510043528 | 77 | 151 | 1.0 | 7.0 | 0.00 | 0.00 | 0.00 | 65 | 1009.7 |
| 20260510043041 | 77 | 136 | 2.0 | 7.0 | 0.00 | 0.00 | 0.00 | 65 | 1009.9 |
| 20260510042528 | 77 | 128 | 2.0 | 7.0 | 0.00 | 0.00 | 0.00 | 66 | 1009.9 |
| 20260510042028 | 77 | 144 | 2.0 | 8.0 | 0.00 | 0.00 | 0.00 | 66 | 1010.0 |
| 20260510041553 | 77 | 101 | 1.0 | 8.0 | 0.00 | 0.00 | 0.00 | 66 | 1010.0 |
| 20260510041028 | 77 | 128 | 1.0 | 8.0 | 0.00 | 0.00 | 0.00 | 66 | 1010.0 |
| 20260510040528 | 77 | 115 | 2.0 | 8.0 | 0.00 | 0.00 | 0.00 | 66 | 1010.1 |
| 20260510040040 | 77 | 105 | 1.0 | 8.0 | 0.00 | 0.00 | 0.00 | 66 | 1010.2 |
| 20260510035527 | 78 | 94 | 2.0 | 8.0 | 0.00 | 0.00 | 0.00 | 65 | 1010.2 |
| 20260510035030 | 78 | 178 | 3.0 | 7.0 | 0.00 | 0.00 | 0.00 | 65 | 1010.3 |
| 20260510034550 | 78 | 108 | 1.0 | 6.0 | 0.00 | 0.00 | 0.00 | 64 | 1010.2 |
| 20260510034029 | 78 | 74 | 1.0 | 6.0 | 0.00 | 0.00 | 0.00 | 64 | 1010.2 |
| 20260510033529 | 78 | 89 | 0.0 | 3.0 | 0.00 | 0.00 | 0.00 | 64 | 1010.3 |
| 20260510033047 | 78 | 0 | 0.0 | 7.0 | 0.00 | 0.00 | 0.00 | 64 | 1010.3 |
| 20260510032527 | 78 | 84 | 0.0 | 7.0 | 0.00 | 0.00 | 0.00 | 64 | 1010.3 |
| 20260510032029 | 78 | 93 | 1.0 | 9.0 | 0.00 | 0.00 | 0.00 | 64 | 1010.2 |
| 20260510031551 | 78 | 88 | 0.0 | 9.0 | 0.00 | 0.00 | 0.00 | 65 | 1010.2 |
| 20260510031026 | 78 | 0 | 2.0 | 9.0 | 0.00 | 0.00 | 0.00 | 65 | 1010.3 |
| 20260510030528 | 78 | 73 | 1.0 | 8.0 | 0.00 | 0.00 | 0.00 | 65 | 1010.3 |
| 20260510030040 | 78 | 69 | 2.0 | 8.0 | 0.00 | 0.00 | 0.00 | 64 | 1010.4 |
| 20260510025529 | 78 | 82 | 2.0 | 7.0 | 0.00 | 0.00 | 0.00 | 64 | 1010.3 |
| 20260510025032 | 78 | 86 | 2.0 | 7.0 | 0.00 | 0.00 | 0.00 | 64 | 1010.3 |
| 20260510024551 | 78 | 77 | 3.0 | 7.0 | 0.00 | 0.00 | 0.00 | 64 | 1010.3 |
| 20260510024027 | 78 | 78 | 2.0 | 6.0 | 0.00 | 0.00 | 0.00 | 63 | 1010.1 |
| 20260510023527 | 78 | 63 | 3.0 | 6.0 | 0.00 | 0.00 | 0.00 | 63 | 1010.0 |
| 20260510023043 | 79 | 88 | 2.0 | 7.0 | 0.00 | 0.00 | 0.00 | 63 | 1010.1 |
| 20260510022531 | 79 | 65 | 3.0 | 8.0 | 0.00 | 0.00 | 0.00 | 62 | 1010.1 |
| 20260510022027 | 79 | 71 | 4.0 | 8.0 | 0.00 | 0.00 | 0.00 | 62 | 1010.0 |
| 20260510021541 | 79 | 75 | 4.0 | 8.0 | 0.00 | 0.00 | 0.00 | 62 | 1009.9 |
| 20260510021027 | 79 | 69 | 3.0 | 7.0 | 0.00 | 0.00 | 0.00 | 61 | 1009.7 |
| 20260510020526 | 79 | 66 | 2.0 | 8.0 | 0.00 | 0.00 | 0.00 | 61 | 1009.7 |
| 20260510020043 | 79 | 62 | 4.0 | 8.0 | 0.00 | 0.00 | 0.00 | 60 | 1009.7 |
| 20260510015532 | 79 | 84 | 4.0 | 8.0 | 0.00 | 0.00 | 0.00 | 60 | 1009.7 |
| 20260510015027 | 80 | 84 | 3.0 | 8.0 | 0.00 | 0.00 | 0.00 | 60 | 1009.6 |
| 20260510014539 | 80 | 62 | 3.0 | 7.0 | 0.00 | 0.00 | 0.00 | 59 | 1009.6 |
| 20260510014029 | 80 | 65 | 3.0 | 7.0 | 0.00 | 0.00 | 0.00 | 59 | 1009.5 |
| 20260510013528 | 80 | 67 | 2.0 | 9.0 | 0.00 | 0.00 | 0.00 | 58 | 1009.6 |
| 20260510013049 | 80 | 64 | 3.0 | 9.0 | 0.00 | 0.00 | 0.00 | 58 | 1009.5 |
| 20260510012527 | 80 | 85 | 3.0 | 9.0 | 0.00 | 0.00 | 0.00 | 57 | 1009.5 |
| 20260510012029 | 81 | 38 | 3.0 | 10.0 | 0.00 | 0.00 | 0.00 | 56 | 1009.3 |
| 20260510011543 | 81 | 68 | 3.0 | 10.0 | 0.00 | 0.00 | 0.00 | 56 | 1009.3 |
| 20260510011029 | 81 | 51 | 4.0 | 13.0 | 0.00 | 0.00 | 0.00 | 55 | 1009.3 |
| 20260510010527 | 81 | 54 | 6.0 | 13.0 | 0.00 | 0.00 | 0.00 | 54 | 1009.1 |
| 20260510010042 | 82 | 71 | 5.0 | 11.0 | 0.00 | 0.00 | 0.00 | 53 | 1009.0 |
| 20260510005528 | 82 | 68 | 4.0 | 11.0 | 0.00 | 0.00 | 0.00 | 52 | 1009.0 |
| 20260510005028 | 82 | 75 | 4.0 | 11.0 | 0.00 | 0.00 | 0.00 | 51 | 1009.0 |
| 20260510004546 | 82 | 77 | 5.0 | 11.0 | 0.00 | 0.00 | 0.00 | 51 | 1009.0 |
| 20260510004028 | 82 | 51 | 4.0 | 11.0 | 0.00 | 0.00 | 0.00 | 50 | 1009.0 |
| 20260510003528 | 83 | 59 | 3.0 | 13.0 | 0.00 | 0.00 | 0.00 | 51 | 1009.0 |
| 20260510003042 | 83 | 80 | 4.0 | 13.0 | 0.00 | 0.00 | 0.00 | 52 | 1008.9 |
| 20260510002527 | 83 | 80 | 5.0 | 12.0 | 0.00 | 0.00 | 0.00 | 52 | 1008.9 |
| 20260510002027 | 83 | 92 | 3.0 | 10.0 | 0.00 | 0.00 | 0.00 | 52 | 1009.0 |
| 20260510001538 | 83 | 76 | 4.0 | 11.0 | 0.00 | 0.00 | 0.00 | 52 | 1009.0 |
| 20260510001029 | 83 | 62 | 5.0 | 11.0 | 0.00 | 0.00 | 0.00 | 52 | 1008.9 |
| 20260510000528 | 84 | 62 | 5.0 | 9.0 | 0.00 | 0.00 | 0.00 | 51 | 1009.0 |
| 20260510000042 | 84 | 80 | 4.0 | 9.0 | 0.00 | 0.00 | 0.00 | 52 | 1009.1 |
| 20260509235526 | 84 | 67 | 2.0 | 9.0 | 0.00 | 0.00 | 0.00 | 53 | 1009.0 |
| 20260509235028 | 84 | 87 | 3.0 | 10.0 | 0.00 | 0.00 | 0.00 | 53 | 1009.1 |
| 20260509234541 | 84 | 55 | 3.0 | 10.0 | 0.00 | 0.00 | 0.00 | 53 | 1009.1 |
| 20260509234027 | 84 | 81 | 5.0 | 11.0 | 0.00 | 0.00 | 0.00 | 54 | 1009.1 |
| 20260509233529 | 85 | 86 | 3.0 | 11.0 | 0.00 | 0.00 | 0.00 | 54 | 1009.1 |
| 20260509233046 | 85 | 84 | 5.0 | 11.0 | 0.00 | 0.00 | 0.00 | 54 | 1009.1 |
| 20260509232528 | 85 | 74 | 4.0 | 10.0 | 0.00 | 0.00 | 0.00 | 54 | 1009.2 |
| 20260509232028 | 85 | 63 | 3.0 | 12.0 | 0.00 | 0.00 | 0.00 | 55 | 1009.1 |
| 20260509231546 | 85 | 59 | 3.0 | 12.0 | 0.00 | 0.00 | 0.00 | 55 | 1009.1 |
| 20260509231027 | 86 | 64 | 5.0 | 12.0 | 0.00 | 0.00 | 0.00 | 55 | 1009.1 |
| 20260509230528 | 86 | 40 | 4.0 | 12.0 | 0.00 | 0.00 | 0.00 | 54 | 1009.1 |
| 20260509230039 | 86 | 68 | 5.0 | 12.0 | 0.00 | 0.00 | 0.00 | 54 | 1009.1 |
| 20260509225528 | 87 | 66 | 4.0 | 11.0 | 0.00 | 0.00 | 0.00 | 54 | 1009.1 |
| 20260509225027 | 86 | 69 | 4.0 | 10.0 | 0.00 | 0.00 | 0.00 | 55 | 1009.0 |
| 20260509224543 | 87 | 57 | 3.0 | 10.0 | 0.00 | 0.00 | 0.00 | 54 | 1009.0 |
| 20260509224029 | 87 | 29 | 4.0 | 12.0 | 0.00 | 0.00 | 0.00 | 54 | 1008.9 |
| 20260509223531 | 87 | 69 | 3.0 | 12.0 | 0.00 | 0.00 | 0.00 | 54 | 1009.0 |
| 20260509223046 | 87 | 56 | 6.0 | 12.0 | 0.00 | 0.00 | 0.00 | 53 | 1008.9 |
| 20260509222532 | 87 | 48 | 4.0 | 13.0 | 0.00 | 0.00 | 0.00 | 55 | 1008.9 |
| 20260509222035 | 87 | 49 | 7.0 | 13.0 | 0.00 | 0.00 | 0.00 | 54 | 1009.0 |
| 20260509221544 | 87 | 48 | 3.0 | 10.0 | 0.00 | 0.00 | 0.00 | 54 | 1009.1 |
| 20260509221028 | 87 | 40 | 3.0 | 10.0 | 0.00 | 0.00 | 0.00 | 53 | 1009.0 |
| 20260509220527 | 87 | 79 | 2.0 | 11.0 | 0.00 | 0.00 | 0.00 | 54 | 1008.9 |
| 20260509220044 | 88 | 78 | 3.0 | 11.0 | 0.00 | 0.00 | 0.00 | 54 | 1008.9 |
| 20260509215528 | 87 | 61 | 3.0 | 11.0 | 0.00 | 0.00 | 0.00 | 54 | 1008.9 |
| 20260509215027 | 88 | 58 | 4.0 | 12.0 | 0.00 | 0.00 | 0.00 | 54 | 1008.9 |
| 20260509214543 | 88 | 51 | 4.0 | 12.0 | 0.00 | 0.00 | 0.00 | 54 | 1008.9 |
| 20260509214027 | 88 | 63 | 6.0 | 12.0 | 0.00 | 0.00 | 0.00 | 53 | 1009.0 |
| 20260509213528 | 88 | 67 | 3.0 | 11.0 | 0.00 | 0.00 | 0.00 | 54 | 1009.1 |
| 20260509213045 | 88 | 85 | 4.0 | 11.0 | 0.00 | 0.00 | 0.00 | 54 | 1009.1 |
| 20260509212528 | 87 | 76 | 4.0 | 11.0 | 0.00 | 0.00 | 0.00 | 54 | 1009.2 |
| 20260509212028 | 87 | 47 | 5.0 | 11.0 | 0.00 | 0.00 | 0.00 | 55 | 1009.3 |
| 20260509211540 | 86 | 59 | 5.0 | 11.0 | 0.00 | 0.00 | 0.00 | 55 | 1009.3 |
| 20260509211028 | 87 | 66 | 4.0 | 11.0 | 0.00 | 0.00 | 0.00 | 54 | 1009.3 |
| 20260509210528 | 88 | 0 | 2.0 | 9.0 | 0.00 | 0.00 | 0.00 | 53 | 1009.3 |
| 20260509210050 | 88 | 73 | 3.0 | 9.0 | 0.00 | 0.00 | 0.00 | 54 | 1009.4 |
| 20260509205526 | 88 | 74 | 3.0 | 9.0 | 0.00 | 0.00 | 0.00 | 53 | 1009.5 |
| 20260509205030 | 87 | 61 | 1.0 | 9.0 | 0.00 | 0.00 | 0.00 | 54 | 1009.6 |
| 20260509204542 | 88 | 61 | 2.0 | 12.0 | 0.00 | 0.00 | 0.00 | 52 | 1009.8 |
| 20260509204027 | 89 | 70 | 4.0 | 12.0 | 0.00 | 0.00 | 0.00 | 51 | 1009.7 |
| 20260509203528 | 89 | 23 | 3.0 | 8.0 | 0.00 | 0.00 | 0.00 | 47 | 1009.7 |
| 20260509203042 | 89 | 352 | 1.0 | 9.0 | 0.00 | 0.00 | 0.00 | 47 | 1009.8 |
| 20260509202532 | 88 | 43 | 3.0 | 9.0 | 0.00 | 0.00 | 0.00 | 46 | 1009.9 |
| 20260509202026 | 89 | 47 | 3.0 | 9.0 | 0.00 | 0.00 | 0.00 | 46 | 1009.9 |
| 20260509201542 | 88 | 0 | 2.0 | 10.0 | 0.00 | 0.00 | 0.00 | 48 | 1010.0 |
| 20260509201028 | 87 | 51 | 3.0 | 10.0 | 0.00 | 0.00 | 0.00 | 49 | 1010.0 |
| 20260509200527 | 87 | 59 | 3.0 | 10.0 | 0.00 | 0.00 | 0.00 | 49 | 1010.1 |
| 20260509200053 | 88 | 51 | 2.0 | 10.0 | 0.00 | 0.00 | 0.00 | 50 | 1010.2 |
| 20260509195531 | 88 | 0 | 4.0 | 10.0 | 0.00 | 0.00 | 0.00 | 48 | 1010.3 |
| 20260509195027 | 88 | 360 | 3.0 | 10.0 | 0.00 | 0.00 | 0.00 | 50 | 1010.4 |
| 20260509194542 | 88 | 351 | 2.0 | 10.0 | 0.00 | 0.00 | 0.00 | 53 | 1010.3 |
| 20260509194028 | 87 | 351 | 0.0 | 6.0 | 0.00 | 0.00 | 0.00 | 51 | 1010.3 |
| 20260509193528 | 87 | 351 | 3.0 | 9.0 | 0.00 | 0.00 | 0.00 | 51 | 1010.4 |
| 20260509193042 | 87 | 0 | 2.0 | 9.0 | 0.00 | 0.00 | 0.00 | 52 | 1010.6 |
| 20260509192527 | 87 | 344 | 2.0 | 9.0 | 0.00 | 0.00 | 0.00 | 50 | 1010.6 |
| 20260509192027 | 86 | 344 | 3.0 | 9.0 | 0.00 | 0.00 | 0.00 | 51 | 1010.7 |
| 20260509191543 | 85 | 5 | 3.0 | 8.0 | 0.00 | 0.00 | 0.00 | 55 | 1010.6 |
| 20260509191029 | 85 | 59 | 1.0 | 11.0 | 0.00 | 0.00 | 0.00 | 57 | 1010.7 |
| 20260509190528 | 85 | 299 | 5.0 | 11.0 | 0.00 | 0.00 | 0.00 | 57 | 1010.7 |
| 20260509190047 | 84 | 23 | 1.0 | 9.0 | 0.00 | 0.00 | 0.00 | 58 | 1010.7 |
| 20260509185531 | 84 | 317 | 3.0 | 9.0 | 0.00 | 0.00 | 0.00 | 58 | 1010.8 |
| 20260509185031 | 83 | 360 | 2.0 | 8.0 | 0.00 | 0.00 | 0.00 | 61 | 1010.8 |
| 20260509184546 | 83 | 61 | 2.0 | 8.0 | 0.00 | 0.00 | 0.00 | 61 | 1010.9 |
| 20260509184028 | 84 | 32 | 2.0 | 9.0 | 0.00 | 0.00 | 0.00 | 62 | 1011.0 |
| 20260509183528 | 83 | 42 | 2.0 | 9.0 | 0.00 | 0.00 | 0.00 | 64 | 1011.0 |
| 20260509183035 | 82 | 57 | 1.0 | 9.0 | 0.00 | 0.00 | 0.00 | 64 | 1011.0 |
| 20260509182527 | 83 | 286 | 4.0 | 9.0 | 0.00 | 0.00 | 0.00 | 64 | 1011.2 |
| 20260509182027 | 83 | 30 | 2.0 | 9.0 | 0.00 | 0.00 | 0.00 | 65 | 1011.2 |
| 20260509181545 | 82 | 302 | 3.0 | 9.0 | 0.00 | 0.00 | 0.00 | 66 | 1011.3 |
| 20260509181028 | 82 | 0 | 2.0 | 8.0 | 0.00 | 0.00 | 0.00 | 64 | 1011.4 |
| 20260509180528 | 82 | 52 | 3.0 | 8.0 | 0.00 | 0.00 | 0.00 | 65 | 1011.5 |
| 20260509180043 | 82 | 342 | 2.0 | 6.0 | 0.00 | 0.00 | 0.00 | 66 | 1011.5 |
| 20260509175527 | 81 | 17 | 1.0 | 7.0 | 0.00 | 0.00 | 0.00 | 66 | 1011.6 |
| 20260509175027 | 81 | 5 | 0.0 | 11.0 | 0.00 | 0.00 | 0.00 | 67 | 1011.6 |
| 20260509174543 | 81 | 352 | 3.0 | 11.0 | 0.00 | 0.00 | 0.00 | 67 | 1011.5 |
| 20260509174027 | 80 | 13 | 4.0 | 11.0 | 0.00 | 0.00 | 0.00 | 68 | 1011.7 |
| 20260509173527 | 80 | 49 | 2.0 | 8.0 | 0.00 | 0.00 | 0.00 | 69 | 1011.7 |
| 20260509173105 | 80 | 26 | 2.0 | 8.0 | 0.00 | 0.00 | 0.00 | 69 | 1011.8 |
| 20260509172528 | 79 | 344 | 4.0 | 10.0 | 0.00 | 0.00 | 0.00 | 69 | 1011.9 |
| 20260509172028 | 79 | 5 | 3.0 | 10.0 | 0.00 | 0.00 | 0.00 | 70 | 1011.9 |
| 20260509171540 | 79 | 344 | 3.0 | 10.0 | 0.00 | 0.00 | 0.00 | 71 | 1011.9 |
| 20260509171026 | 79 | 57 | 2.0 | 10.0 | 0.00 | 0.00 | 0.00 | 71 | 1012.0 |
| 20260509170528 | 78 | 5 | 4.0 | 11.0 | 0.00 | 0.00 | 0.00 | 70 | 1012.0 |
| 20260509170055 | 79 | 45 | 5.0 | 11.0 | 0.00 | 0.00 | 0.00 | 71 | 1011.9 |
| 20260509165527 | 78 | 348 | 3.0 | 10.0 | 0.00 | 0.00 | 0.00 | 71 | 1011.9 |
| 20260509165025 | 78 | 32 | 3.0 | 10.0 | 0.00 | 0.00 | 0.00 | 71 | 1011.9 |
| 20260509164542 | 78 | 331 | 5.0 | 10.0 | 0.00 | 0.00 | 0.00 | 71 | 1011.9 |
| 20260509164029 | 78 | 5 | 4.0 | 12.0 | 0.00 | 0.00 | 0.00 | 73 | 1012.0 |
| 20260509163526 | 78 | 347 | 4.0 | 12.0 | 0.00 | 0.00 | 0.00 | 72 | 1011.9 |
| 20260509163042 | 78 | 360 | 4.0 | 11.0 | 0.00 | 0.00 | 0.00 | 72 | 1011.9 |
| 20260509162527 | 77 | 51 | 2.0 | 9.0 | 0.00 | 0.00 | 0.00 | 74 | 1011.8 |
| 20260509162027 | 77 | 339 | 2.0 | 11.0 | 0.00 | 0.00 | 0.00 | 74 | 1011.8 |
| 20260509161542 | 76 | 348 | 4.0 | 12.0 | 0.00 | 0.00 | 0.00 | 75 | 1011.8 |
| 20260509161027 | 76 | 319 | 6.0 | 12.0 | 0.00 | 0.00 | 0.00 | 75 | 1011.8 |
| 20260509160528 | 76 | 16 | 4.0 | 13.0 | 0.00 | 0.00 | 0.00 | 76 | 1011.8 |
| 20260509160047 | 75 | 342 | 7.0 | 14.0 | 0.00 | 0.00 | 0.00 | 76 | 1011.9 |
| 20260509155527 | 75 | 48 | 5.0 | 14.0 | 0.00 | 0.00 | 0.00 | 75 | 1011.8 |
| 20260509155027 | 75 | 355 | 5.0 | 12.0 | 0.00 | 0.00 | 0.00 | 76 | 1011.7 |
| 20260509154543 | 75 | 329 | 6.0 | 13.0 | 0.00 | 0.00 | 0.00 | 76 | 1011.8 |
| 20260509154028 | 75 | 324 | 4.0 | 13.0 | 0.00 | 0.00 | 0.00 | 76 | 1011.8 |
| 20260509153530 | 75 | 5 | 4.0 | 12.0 | 0.00 | 0.00 | 0.00 | 77 | 1011.9 |
| 20260509153043 | 75 | 331 | 5.0 | 12.0 | 0.00 | 0.00 | 0.00 | 77 | 1011.9 |
| 20260509152527 | 74 | 355 | 6.0 | 12.0 | 0.00 | 0.00 | 0.00 | 78 | 1011.8 |
| 20260509152028 | 74 | 323 | 6.0 | 12.0 | 0.00 | 0.00 | 0.00 | 78 | 1011.7 |
| 20260509151554 | 74 | 355 | 4.0 | 12.0 | 0.00 | 0.00 | 0.00 | 78 | 1011.8 |
| 20260509151030 | 74 | 323 | 5.0 | 12.0 | 0.00 | 0.00 | 0.00 | 77 | 1011.8 |
| 20260509150527 | 74 | 346 | 5.0 | 12.0 | 0.00 | 0.00 | 0.00 | 79 | 1011.8 |
| 20260509150046 | 74 | 295 | 3.0 | 10.0 | 0.00 | 0.00 | 0.00 | 80 | 1011.8 |
| 20260509145528 | 73 | 338 | 5.0 | 11.0 | 0.00 | 0.00 | 0.00 | 80 | 1011.8 |
| 20260509145028 | 73 | 289 | 5.0 | 11.0 | 0.00 | 0.00 | 0.00 | 79 | 1011.8 |
| 20260509144538 | 73 | 313 | 5.0 | 10.0 | 0.00 | 0.00 | 0.00 | 80 | 1011.7 |
| 20260509144027 | 73 | 345 | 2.0 | 10.0 | 0.00 | 0.00 | 0.00 | 80 | 1011.8 |
| 20260509143531 | 73 | 355 | 4.0 | 11.0 | 0.00 | 0.00 | 0.00 | 80 | 1011.8 |
| 20260509143054 | 73 | 351 | 5.0 | 12.0 | 0.00 | 0.00 | 0.00 | 81 | 1011.8 |